Pittsburgh, PA

7:24 PM EDT on May 29, 2017 (GMT -0400)
Pittsburgh International

Weather History for KPIT - December, 2010

Change the Weather History Date:

Sunday, December 5, 2010

  Actual Average Record
Temperature  
Mean Temperature 26 °F 36 °F  
Max Temperature 28 °F 43 °F 73 °F (2001)
Min Temperature 24 °F 29 °F 12 °F (1976)
Degree Days  
Heating Degree Days 39 29  
Month to date heating degree days 180 143  
Since 1 July heating degree days 1281 1306  
Cooling Degree Days 0 0  
Month to date cooling degree days 0 0  
Year to date cooling degree days 1029 736  
Moisture  
Dew Point 19 °F    
Average Humidity 75    
Maximum Humidity 81    
Minimum Humidity 68    
Precipitation  
Precipitation 0.02 in 0.10 in 1.33 in (1977)
Month to date precipitation 0.67 0.48  
Year to date precipitation 36.96 35.82  
Snow  
Snow 0.50 in 0.20 in 5.90 in (2003)
Month to date snowfall 3.0 1.0  
Since 1 July snowfall 3.0 3.4  
Snow Depth 1.00 in    
Sea Level Pressure  
Sea Level Pressure 29.97 in    
Wind  
Wind Speed 15 mph (WNW)    
Max Wind Speed 25 mph    
Max Gust Speed 33 mph    
Visibility 7 miles    
Events Snow    
T = Trace of Precipitation, MM = Missing Value Source: NWS Daily Summary

Daily Weather History Graph

Daily Weather History Graph

Search for Another Location

Airport or City:

Trip Planner

Search our weather history database for the weather conditions in past years. The results will help you decide how hot, cold, wet, or windy it might be!

Date:

Astronomy

Dec. 05, 2010 Rise Set
Actual Time 7:28 AM EST 4:54 PM EST
Civil Twilight 6:58 AM EST 5:24 PM EST
Nautical Twilight 6:24 AM EST 5:58 PM EST
Astronomical Twilight 5:51 AM EST 6:31 PM EST
Moon 7:28 AM EST (12/5) 4:48 PM EST (12/5)
Length of Visible Light 10h 26m
Length of Day
9h 25m
Waning Crescent, 0% of the Moon is Illuminated
Dec 5
Waning Crescent
Dec 5
New
Dec 13
First Quarter
Dec 21
Full
Dec 27
Last Quarter

Hourly Weather History & Observations

Time (EST) Temp. Windchill Dew Point Humidity Pressure Visibility Wind Dir Wind Speed Gust Speed Precip Events Conditions
12:51 AM 26.1 °F 18.4 °F 17.1 °F 69% 29.96 in 10.0 mi NW 6.9 mph - N/A   Scattered Clouds
1:51 AM 25.0 °F 14.8 °F 18.0 °F 75% 29.96 in 10.0 mi WNW 10.4 mph - 0.00 in Snow Light Snow
2:40 AM 26.6 °F 17.5 °F 21.2 °F 80% 29.91 in 3.0 mi WNW 9.2 mph - 0.00 in Snow Light Snow
2:51 AM 26.1 °F 17.6 °F 21.0 °F 81% 29.98 in 3.0 mi WNW 8.1 mph - 0.00 in Snow Light Snow
3:51 AM 26.1 °F 15.0 °F 21.0 °F 81% 29.97 in 9.0 mi WNW 12.7 mph - 0.00 in Snow Light Snow
4:51 AM 26.1 °F 15.0 °F 19.9 °F 78% 29.96 in 10.0 mi WNW 12.7 mph - 0.00 in Snow Light Snow
5:51 AM 27.0 °F 14.3 °F 19.0 °F 72% 29.97 in 6.0 mi WNW 17.3 mph - 0.00 in Snow Light Snow
6:02 AM 26.6 °F 14.7 °F 19.4 °F 74% 29.90 in 6.0 mi WNW 15.0 mph - 0.00 in Snow Light Snow
6:51 AM 26.1 °F 14.5 °F 19.0 °F 75% 29.98 in 3.0 mi West 13.8 mph - 0.00 in Snow Light Snow
7:51 AM 25.0 °F 11.3 °F 19.9 °F 81% 30.00 in 2.0 mi WNW 18.4 mph - 0.00 in Snow Light Snow
8:51 AM 25.0 °F 13.6 °F 19.9 °F 81% 30.01 in 2.0 mi WNW 12.7 mph - 0.00 in Snow Light Snow
9:33 AM 24.8 °F 11.1 °F 19.4 °F 80% 29.94 in 3.0 mi WNW 18.4 mph - 0.00 in Snow Light Snow
9:51 AM 25.0 °F 11.7 °F 19.0 °F 78% 30.02 in 3.0 mi West 17.3 mph - 0.00 in Snow Light Snow
10:51 AM 26.1 °F 13.6 °F 19.0 °F 75% 30.02 in 3.0 mi West 16.1 mph - 0.00 in Snow Light Snow
4:51 PM 24.8 °F 12.4 °F 17.6 °F 74% 29.94 in 9.0 mi West 15.0 mph 20.7 mph N/A Snow Light Snow
6:51 PM 24.8 °F 14.6 °F 17.6 °F 74% 29.95 in 10.0 mi West 10.4 mph - N/A   Mostly Cloudy
7:51 PM 25.0 °F 12.2 °F 18.0 °F 75% 30.01 in 10.0 mi West 16.1 mph - N/A   Scattered Clouds
8:51 PM 25.0 °F 13.6 °F 17.1 °F 72% 30.00 in 10.0 mi West 12.7 mph - N/A   Overcast
9:51 PM 24.8 °F 14.6 °F 17.6 °F 74% 29.92 in 10.0 mi West 10.4 mph 23.0 mph N/A Snow Light Snow
10:51 PM 24.1 °F 12.5 °F 19.0 °F 81% 29.98 in 7.0 mi West 12.7 mph - 0.00 in Snow Light Snow
11:18 PM 24.8 °F 16.1 °F 17.6 °F 74% 29.90 in 8.0 mi West 8.1 mph 16.1 mph 0.00 in Snow Light Snow
11:51 PM 25.0 °F 13.1 °F 18.0 °F 75% 29.96 in 10.0 mi West 13.8 mph 23.0 mph 0.00 in Snow Light Snow